Radiation Dose at Monitoring Post of Fukushima Daini Nuclear Power Station
Date,Time,MP-1(microSv/h),MP-2(microSv/h),MP-3(microSv/h),MP-4(microSv/h),MP-5(microSv/h),MP-6(microSv/h),MP-7(microSv/h),Wind Direction,Wind Velocity(m/s),Rain
2022/05/14,00:00,0.152,0.142,0.217,0.210,0.219,0.123,0.081,-,CALM,Yes
2022/05/14,00:10,0.151,0.143,0.216,0.212,0.219,0.123,0.081,-,CALM,Yes
2022/05/14,00:20,0.151,0.141,0.217,0.210,0.218,0.122,0.080,northwest,0.7,Yes
2022/05/14,00:30,0.150,0.142,0.216,0.211,0.220,0.122,0.081,northwest,1.3,Yes
2022/05/14,00:40,0.151,0.142,0.217,0.208,0.218,0.122,0.080,north-northeast,1.5,Yes
2022/05/14,00:50,0.150,0.141,0.215,0.210,0.218,0.122,0.081,south-southeast,1.7,Yes
2022/05/14,01:00,0.151,0.141,0.216,0.208,0.217,0.120,0.081,south-southwest,0.7,Yes
2022/05/14,01:10,0.150,0.142,0.215,0.210,0.220,0.121,0.079,-,CALM,Yes
2022/05/14,01:20,0.149,0.141,0.216,0.209,0.218,0.121,0.080,-,CALM,Yes
2022/05/14,01:30,0.149,0.141,0.215,0.210,0.217,0.120,0.079,-,CALM,Yes
2022/05/14,01:40,0.149,0.140,0.215,0.207,0.217,0.119,0.078,south-southeast,1.9,Yes
2022/05/14,01:50,0.149,0.139,0.215,0.210,0.217,0.120,0.078,east-southeast,1.5,Yes
2022/05/14,02:00,0.149,0.140,0.213,0.206,0.218,0.120,0.078,east-southeast,1.5,Yes
2022/05/14,02:10,0.148,0.139,0.215,0.208,0.217,0.120,0.077,south-southeast,2.6,Yes
2022/05/14,02:20,0.149,0.140,0.214,0.207,0.216,0.119,0.077,south-southeast,2.5,Yes
2022/05/14,02:30,0.148,0.139,0.214,0.209,0.217,0.120,0.078,south-southeast,2.9,Yes
2022/05/14,02:40,0.149,0.139,0.214,0.207,0.217,0.119,0.077,south-southeast,4.4,No
2022/05/14,02:50,0.147,0.139,0.215,0.208,0.216,0.119,0.077,south,5.5,Yes
2022/05/14,03:00,0.148,0.138,0.213,0.207,0.217,0.118,0.077,south,4.9,Yes
2022/05/14,03:10,0.146,0.138,0.215,0.208,0.217,0.118,0.077,south,5.3,Yes
2022/05/14,03:20,0.148,0.138,0.215,0.207,0.217,0.118,0.077,south,6.4,Yes
2022/05/14,03:30,0.146,0.139,0.213,0.208,0.216,0.118,0.076,south,4.7,Yes
2022/05/14,03:40,0.149,0.138,0.214,0.206,0.217,0.118,0.076,south,4.5,Yes
2022/05/14,03:50,0.147,0.139,0.214,0.208,0.216,0.119,0.076,south-southwest,1.9,Yes
2022/05/14,04:00,0.147,0.138,0.213,0.208,0.216,0.117,0.076,west-southwest,0.7,Yes
2022/05/14,04:10,0.147,0.139,0.213,0.207,0.216,0.118,0.076,-,CALM,Yes
2022/05/14,04:20,0.148,0.138,0.214,0.207,0.216,0.118,0.077,south,1.2,Yes
2022/05/14,04:30,0.147,0.138,0.212,0.209,0.216,0.118,0.077,south,1.6,Yes
2022/05/14,04:40,0.148,0.138,0.214,0.207,0.217,0.118,0.076,south,1.6,Yes
2022/05/14,04:50,0.147,0.138,0.212,0.208,0.215,0.117,0.076,southeast,1.1,Yes
2022/05/14,05:00,0.147,0.139,0.213,0.207,0.216,0.118,0.077,south-southeast,1.3,Yes
2022/05/14,05:10,0.146,0.138,0.213,0.208,0.215,0.118,0.077,south,1.3,Yes
2022/05/14,05:20,0.148,0.139,0.215,0.207,0.217,0.118,0.076,south-southeast,1.1,Yes
2022/05/14,05:30,0.147,0.138,0.213,0.209,0.214,0.118,0.076,south,1.7,Yes
2022/05/14,05:40,0.148,0.139,0.214,0.207,0.218,0.117,0.077,south,2.6,Yes
2022/05/14,05:50,0.146,0.139,0.212,0.208,0.215,0.118,0.077,south,2.8,Yes
2022/05/14,06:00,0.148,0.138,0.215,0.208,0.217,0.118,0.077,south,4.6,Yes
2022/05/14,06:10,0.146,0.139,0.213,0.209,0.215,0.118,0.077,south,7.4,Yes
2022/05/14,06:20,0.148,0.139,0.214,0.206,0.216,0.118,0.077,south,9.2,Yes
2022/05/14,06:30,0.147,0.139,0.211,0.208,0.216,0.118,0.077,south,6.9,Yes
2022/05/14,06:40,0.148,0.139,0.214,0.206,0.216,0.119,0.078,south,5.4,Yes
2022/05/14,06:50,0.147,0.139,0.211,0.208,0.215,0.118,0.077,south,4.8,Yes
2022/05/14,07:00,0.148,0.140,0.213,0.206,0.215,0.118,0.078,south,4.3,Yes
2022/05/14,07:10,0.147,0.138,0.212,0.206,0.216,0.118,0.078,south,5.0,Yes
2022/05/14,07:20,0.147,0.138,0.213,0.206,0.214,0.118,0.077,south,4.2,Yes
2022/05/14,07:30,0.147,0.139,0.211,0.206,0.217,0.117,0.077,south,5.0,Yes
2022/05/14,07:40,0.147,0.139,0.212,0.207,0.215,0.118,0.076,south-southeast,5.3,Yes
2022/05/14,07:50,0.148,0.139,0.213,0.205,0.217,0.118,0.078,south,5.1,Yes
2022/05/14,08:00,0.145,0.139,0.213,0.207,0.215,0.119,0.078,south,5.7,Yes
2022/05/14,08:10,0.148,0.139,0.214,0.206,0.216,0.119,0.078,south,5.4,Yes
2022/05/14,08:20,0.146,0.138,0.211,0.207,0.216,0.118,0.077,south-southwest,5.7,No
2022/05/14,08:30,0.147,0.139,0.213,0.207,0.213,0.119,0.076,south-southwest,4.3,No
2022/05/14,08:40,0.146,0.138,0.213,0.205,0.215,0.118,0.076,south,4.0,No
2022/05/14,08:50,0.145,0.137,0.211,0.207,0.215,0.117,0.076,south,3.8,No
2022/05/14,09:00,0.147,0.138,0.212,0.206,0.215,0.117,0.076,south,3.1,No
2022/05/14,09:10,0.147,0.138,0.214,0.204,0.212,0.117,0.076,south,3.0,No
2022/05/14,09:20,0.145,0.136,0.210,0.207,0.218,0.116,0.076,south,3.7,No
2022/05/14,09:30,0.147,0.136,0.210,0.206,0.214,0.116,0.076,south,4.4,No
2022/05/14,09:40,0.146,0.137,0.213,0.204,0.213,0.117,0.075,south,4.5,No
2022/05/14,09:50,0.145,0.137,0.211,0.207,0.217,0.116,0.075,south,4.9,No
2022/05/14,10:00,0.147,0.138,0.213,0.207,0.215,0.117,0.075,south-southwest,4.4,No
2022/05/14,10:10,0.146,0.138,0.215,0.205,0.213,0.117,0.075,south-southwest,4.0,No
2022/05/14,10:20,0.145,0.137,0.211,0.207,0.217,0.117,0.075,southwest,4.7,No
2022/05/14,10:30,0.146,0.138,0.213,0.206,0.215,0.117,0.076,south-southwest,4.5,No
2022/05/14,10:40,0.146,0.136,0.213,0.207,0.213,0.117,0.075,south-southwest,4.3,No
2022/05/14,10:50,0.145,0.137,0.212,0.208,0.215,0.116,0.075,south-southeast,3.5,No
2022/05/14,11:00,0.147,0.137,0.212,0.208,0.215,0.117,0.075,south,3.5,No
2022/05/14,11:10,0.145,0.137,0.214,0.206,0.214,0.117,0.075,south-southwest,3.3,No
2022/05/14,11:20,0.146,0.136,0.212,0.209,0.215,0.116,0.075,south,2.8,No
2022/05/14,11:30,0.146,0.138,0.211,0.207,0.217,0.117,0.075,south,3.1,No
2022/05/14,11:40,0.147,0.137,0.213,0.205,0.215,0.118,0.075,south-southwest,2.4,No
2022/05/14,11:50,0.146,0.137,0.213,0.207,0.213,0.118,0.076,south-southwest,1.6,No
2022/05/14,12:00,0.147,0.138,0.212,0.209,0.215,0.116,0.076,southwest,1.4,No
2022/05/14,12:10,0.147,0.139,0.212,0.206,0.217,0.118,0.076,southwest,1.2,No
2022/05/14,12:20,0.145,0.137,0.215,0.206,0.214,0.118,0.077,west,1.3,No
2022/05/14,12:30,0.148,0.137,0.214,0.205,0.214,0.117,0.075,west,1.6,No
2022/05/14,12:40,0.147,0.136,0.213,0.207,0.213,0.117,0.076,west-northwest,2.6,No
2022/05/14,12:50,0.146,0.138,0.213,0.208,0.213,0.118,0.076,west-northwest,2.7,No
2022/05/14,13:00,0.145,0.138,0.212,0.208,0.216,0.118,0.076,west,1.7,No
2022/05/14,13:10,0.147,0.138,0.212,0.207,0.215,0.118,0.075,northwest,1.5,No
2022/05/14,13:20,0.148,0.137,0.212,0.206,0.217,0.117,0.075,northwest,1.8,No
2022/05/14,13:30,0.147,0.137,0.214,0.208,0.215,0.117,0.075,northwest,1.6,No
2022/05/14,13:40,0.147,0.137,0.213,0.207,0.215,0.118,0.076,west-southwest,2.9,No
2022/05/14,13:50,0.146,0.137,0.213,0.207,0.214,0.118,0.076,northwest,2.3,No
2022/05/14,14:00,0.145,0.137,0.213,0.207,0.217,0.118,0.075,northwest,7.4,No
2022/05/14,14:10,0.145,0.138,0.213,0.207,0.216,0.118,0.076,northwest,4.9,No
2022/05/14,14:20,0.146,0.138,0.214,0.209,0.215,0.118,0.075,west-northwest,6.7,No
2022/05/14,14:30,0.149,0.138,0.215,0.207,0.214,0.118,0.075,west-northwest,8.4,No
2022/05/14,14:40,0.148,0.137,0.213,0.208,0.215,0.118,0.075,west-northwest,7.9,No
2022/05/14,14:50,0.147,0.137,0.216,0.210,0.215,0.118,0.075,west-northwest,10.3,No
2022/05/14,15:00,0.146,0.140,0.216,0.212,0.215,0.118,0.075,west-northwest,6.3,No
2022/05/14,15:10,0.149,0.139,0.215,0.208,0.217,0.119,0.076,north-northwest,8.1,No
2022/05/14,15:20,0.148,0.138,0.214,0.207,0.219,0.120,0.076,northwest,7.7,No
2022/05/14,15:30,0.148,0.138,0.215,0.209,0.218,0.117,0.076,northwest,8.9,No
2022/05/14,15:40,0.147,0.139,0.216,0.211,0.216,0.118,0.076,northwest,7.0,No
2022/05/14,15:50,0.150,0.139,0.215,0.209,0.220,0.118,0.076,west-northwest,8.1,No
2022/05/14,16:00,0.149,0.139,0.215,0.209,0.218,0.119,0.076,west-northwest,8.1,No
2022/05/14,16:10,0.146,0.139,0.217,0.212,0.217,0.118,0.075,northwest,7.3,No
2022/05/14,16:20,0.149,0.139,0.216,0.210,0.216,0.118,0.076,west-northwest,8.3,No
2022/05/14,16:30,0.150,0.139,0.215,0.210,0.215,0.119,0.076,northwest,8.6,No
2022/05/14,16:40,0.148,0.139,0.217,0.211,0.219,0.119,0.075,northwest,8.9,No
2022/05/14,16:50,0.149,0.140,0.216,0.209,0.218,0.118,0.076,northwest,11.7,No
2022/05/14,17:00,0.149,0.139,0.216,0.211,0.217,0.119,0.076,west-northwest,10.7,No
2022/05/14,17:10,0.148,0.139,0.217,0.210,0.219,0.119,0.076,west-northwest,11.1,No
2022/05/14,17:20,0.149,0.139,0.216,0.210,0.218,0.118,0.077,west-northwest,8.1,No
2022/05/14,17:30,0.149,0.138,0.217,0.212,0.215,0.118,0.075,west-northwest,10.1,No
2022/05/14,17:40,0.147,0.139,0.215,0.209,0.219,0.118,0.076,west-northwest,10.4,No
2022/05/14,17:50,0.149,0.139,0.217,0.211,0.218,0.118,0.076,west-northwest,10.0,No
2022/05/14,18:00,0.148,0.139,0.217,0.211,0.216,0.118,0.076,west-northwest,11.8,No
2022/05/14,18:10,0.150,0.139,0.215,0.211,0.219,0.120,0.077,west-northwest,12.3,No
2022/05/14,18:20,0.148,0.140,0.217,0.211,0.217,0.118,0.076,northwest,9.2,No
2022/05/14,18:30,0.149,0.138,0.215,0.209,0.218,0.119,0.076,northwest,9.8,No
2022/05/14,18:40,0.150,0.139,0.217,0.211,0.218,0.119,0.076,northwest,8.5,No
2022/05/14,18:50,0.148,0.139,0.216,0.211,0.218,0.119,0.076,northwest,7.0,No
2022/05/14,19:00,0.150,0.139,0.217,0.212,0.218,0.118,0.077,northwest,6.2,No
2022/05/14,19:10,0.149,0.141,0.216,0.209,0.217,0.119,0.075,northwest,4.4,No
2022/05/14,19:20,0.150,0.139,0.218,0.212,0.218,0.120,0.076,north-northwest,4.2,No
2022/05/14,19:30,0.149,0.141,0.216,0.211,0.218,0.117,0.076,north-northwest,5.5,No
2022/05/14,19:40,0.150,0.139,0.217,0.212,0.219,0.120,0.076,northwest,7.3,No
2022/05/14,19:50,0.148,0.141,0.217,0.209,0.217,0.119,0.076,northwest,6.6,No
2022/05/14,20:00,0.149,0.140,0.217,0.212,0.220,0.119,0.076,northwest,1.6,No
2022/05/14,20:10,0.149,0.140,0.216,0.210,0.216,0.119,0.076,north-northwest,1.6,No
2022/05/14,20:20,0.148,0.138,0.217,0.212,0.219,0.119,0.076,north,4.8,No
2022/05/14,20:30,0.150,0.140,0.217,0.209,0.216,0.118,0.076,north-northwest,5.4,No
2022/05/14,20:40,0.149,0.139,0.218,0.212,0.219,0.120,0.076,north-northwest,4.9,No
2022/05/14,20:50,0.150,0.140,0.216,0.210,0.218,0.119,0.076,north-northwest,3.9,No
2022/05/14,21:00,0.149,0.139,0.217,0.211,0.218,0.119,0.076,north-northwest,5.3,No
2022/05/14,21:10,0.149,0.139,0.218,0.210,0.217,0.119,0.076,northwest,5.5,No
2022/05/14,21:20,0.149,0.139,0.217,0.211,0.218,0.119,0.076,northwest,5.6,No
2022/05/14,21:30,0.149,0.140,0.217,0.211,0.218,0.118,0.076,northwest,5.2,No
2022/05/14,21:40,0.150,0.139,0.217,0.211,0.219,0.120,0.076,northwest,4.1,No
2022/05/14,21:50,0.149,0.140,0.216,0.210,0.217,0.119,0.076,northwest,3.8,No
2022/05/14,22:00,0.150,0.139,0.216,0.212,0.218,0.120,0.076,north-northwest,1.9,No
2022/05/14,22:10,0.149,0.141,0.217,0.210,0.217,0.120,0.076,north,1.3,No
2022/05/14,22:20,0.148,0.140,0.217,0.212,0.217,0.119,0.076,north,1.0,Yes
2022/05/14,22:30,0.150,0.140,0.216,0.211,0.219,0.119,0.076,west-northwest,2.1,Yes
2022/05/14,22:40,0.149,0.140,0.217,0.211,0.217,0.119,0.077,northwest,1.7,Yes
2022/05/14,22:50,0.151,0.140,0.218,0.210,0.219,0.120,0.078,northwest,2.6,Yes
2022/05/14,23:00,0.151,0.142,0.217,0.213,0.219,0.121,0.079,west-northwest,4.8,Yes
2022/05/14,23:10,0.151,0.141,0.220,0.213,0.221,0.122,0.080,north,1.8,Yes
2022/05/14,23:20,0.152,0.143,0.218,0.214,0.221,0.122,0.080,north-northeast,2.1,Yes
2022/05/14,23:30,0.152,0.143,0.220,0.214,0.221,0.122,0.081,northeast,2.8,Yes
2022/05/14,23:40,0.154,0.143,0.220,0.216,0.222,0.123,0.082,northeast,3.3,Yes
2022/05/14,23:50,0.152,0.143,0.221,0.216,0.222,0.124,0.081,east-northeast,2.8,Yes
